{"data":{"norad_id":64857,"intl_designator":"2025-152R","name":"STARLINK-34683","alt_names":[],"object_type":"PAYLOAD","status":"ACTIVE","operator":null,"country":"US","launch_date":"2025-07-19","launch_site_code":"AFWTR","launch_vehicle":null,"mission":null,"orbit_class":"UNKNOWN","rcs_meters":null,"size_class":null,"mass_kg":null,"dimensions":null,"purposes":["comms"],"wikipedia_slug":null,"has_3d_model":false,"image_url":null,"decayed_at":null,"tle_current":{"epoch":"2026-09-20T14:31:58.981728Z","epoch_age_seconds":115191,"freshness":"FRESH","line1":"1 64857U 25152R   26263.60554377  .00017905  00000+0  55531-3 0  9994","line2":"2 64857  97.2802 114.2227 0002139  86.5193 273.6294 15.33461350 64842","mean_motion":15.3346135,"eccentricity":0.0002139,"inclination_deg":97.2802,"raan_deg":114.2227,"arg_perigee_deg":86.5193,"mean_anomaly_deg":273.6294,"bstar":0.00055531,"rev_number":6484,"period_min":93.905203414484,"perigee_km":464.03067602955,"apogee_km":466.95838159758,"semimajor_km":6843.6315288136,"source":"CELESTRAK","updated_at":"2026-09-21T09:00:35.451436Z"}}}